Location: Harwich
(41.7160°N, 69.9939°W)
Time: 08:29:22
(UTC+01:00)

X-37B - Visible Passes

Search period start: 06 December 2022 00:00
Search period end: 16 December 2022 00:00
Orbit: 277 x 277 km, 45.0° (Epoch: 01 November)

Date Brightness Start Highest point End Pass type
(mag) Time Alt. Az. Time Alt. Az. Time Alt. Az.
06 Dec 2.7 23:00:33 10° SSE 23:00:47 10° SE 23:01:01 10° SE visible
07 Dec 2.0 22:59:30 10° SSW 23:01:18 18° SSE 23:02:46 12° ESE visible
08 Dec 1.1 22:59:38 10° SW 23:01:52 32° SSE 23:03:29 15° E visible
09 Dec 0.1 23:00:04 10° WSW 23:02:29 60° SSE 23:04:10 17° E visible
10 Dec -0.1 23:00:43 10° WSW 23:03:10 79° NNW 23:04:49 18° ENE visible
11 Dec 0.3 23:01:29 10° W 23:03:53 51° NNW 23:05:28 18° ENE visible
12 Dec 0.7 23:02:17 10° W 23:04:38 39° N 23:06:07 18° NE visible
13 Dec 0.9 23:03:06 10° WNW 23:05:24 34° N 23:06:47 18° NE visible
14 Dec 0.8 23:03:52 10° WNW 23:06:11 34° N 23:07:31 19° ENE visible
15 Dec 0.6 23:04:36 10° WNW 23:06:57 38° N 23:08:18 20° ENE visible
